Voltar ao catálogo

STARLINK-30101

AtivoComunicaçõesVLEO
NORAD 56301·PAYLOAD·🇺🇸 United States

Lançado Apr 19, 2023 de Cape Canaveral Space Force Station

Loading…

Próximas Passagens (próximas 24 horas)

TLE

AtualizadoSource: CelesTrak SupGP

Época: Sep 14, 2026, 21:54 UTC

1 56301C 23056R   26257.91298611  .00019422  00000+0  77773-3 0  2578
2 56301  43.0000 218.3704 0001154 247.5065  31.0778 15.24245916    15

Acompanhe STARLINK-30101 em tempo real com AllMySat

Download on the App Store